Location: Newark
(23.5328°S, 46.7919°W)
Time: 23:09:50
(UTC+00:00)

Envisat - Pass Details

Date: 07 March 2021
Orbit: 764 x 766 km, 98.1° (Epoch: 22 April)

Event Time Altitude Azimuth Distance (km) Brightness Sun altitude
Rises 21:47:26 0° 195° (SSW) 3,253 6.6 -4.7°
Reaches altitude 10° 21:50:47 10° 218° (SW) 2,319 6.2 -5.5°
Maximum altitude 21:53:28 14° 250° (WSW) 2,017 6.7 -6.1°
Drops below altitude 10° 21:56:08 10° 282° (WNW) 2,306 6.9 -6.7°
Sets 21:59:28 0° 305° (NW) 3,224 7.0 -7.5°
